Date,TemperatureHighF,TemperatureAvgF,TemperatureLowF,DewpointHighF,DewpointAvgF,DewpointLowF,HumidityHigh,HumidityAvg,HumidityLow,PressureMaxIn,PressureMinIn,WindSpeedMaxMPH,WindSpeedAvgMPH,GustSpeedMaxMPH,PrecipitationSumIn
2013-3-1,105,76,60,87,40,0,66,32,10,29.63,29.45,20,2,20,0.00
2013-3-2,76,65,60,48,24,5,44,22,10,29.77,29.56,15,2,15,0.00
2013-3-3,77,70,61,50,34,20,46,28,17,29.57,29.20,22,3,24,0.00
2013-3-4,88,71,61,49,41,31,60,36,15,29.20,28.97,16,2,16,0.00
2013-3-5,68,62,59,40,27,3,41,29,10,29.63,29.04,23,8,23,0.00
2013-3-6,110,86,66,58,30,8,27,14,10,29.79,29.72,2,0,2,0.00
2013-3-7,78,70,63,56,39,10,72,37,10,29.57,29.38,13,2,15,0.00
2013-3-8,65,64,62,65,61,56,99,92,72,29.46,29.30,17,4,17,0.00
2013-3-9,74,68,64,66,64,61,93,86,73,29.30,28.94,18,4,46,0.79
2013-3-10,75,66,63,63,38,7,95,44,10,29.45,29.06,22,4,25,0.57
2013-3-11,110,79,66,93,38,0,78,29,10,29.52,29.31,8,1,11,0.00
2013-3-12,98,77,65,78,36,14,57,25,13,29.58,29.35,16,3,19,0.00
2013-3-13,78,70,65,52,31,10,42,24,11,29.76,29.57,12,2,14,0.00
2013-3-14,80,72,66,62,44,27,78,40,23,29.68,29.50,21,2,21,0.00
2013-3-15,82,72,64,60,51,37,84,50,31,29.52,29.26,17,3,72,0.00
2013-3-16,85,74,65,60,55,48,78,53,32,29.27,29.02,21,4,21,0.00
2013-3-17,85,74,68,62,59,56,76,61,43,29.11,28.95,21,2,25,0.00
2013-3-18,88,75,66,66,53,40,91,53,26,29.27,29.02,15,2,19,0.00
2013-3-19,86,73,65,62,54,44,76,54,38,29.39,29.11,18,2,20,0.00
2013-3-20,73,68,64,59,40,14,83,43,12,29.57,29.30,19,3,50,0.06
2013-3-21,78,71,66,62,52,38,80,53,33,29.30,28.90,22,4,23,0.00
2013-3-22,84,73,67,66,60,47,89,65,42,29.08,28.93,12,2,75,0.00
2013-3-23,79,71,67,66,59,51,91,68,40,29.12,28.89,13,1,13,0.00
2013-3-24,100,79,66,69,56,18,83,53,10,29.48,29.04,24,9,26,0.00
2013-3-25,81,81,81,0,0,0,10,10,10,29.63,29.63,0,0,0,0.00
2013-3-26,146,106,71,74,44,0,25,14,10,29.79,29.57,0,0,2,0.00
2013-3-27,118,79,71,82,43,26,60,30,12,29.61,29.42,15,3,20,0.00
2013-3-28,86,75,71,84,66,57,99,76,55,29.50,29.40,14,3,16,0.00
2013-3-29,80,75,71,75,62,53,99,66,42,29.46,29.33,15,2,15,0.00
2013-3-30,84,76,71,68,63,58,90,68,45,29.40,29.17,14,3,14,0.00